CSC3708 RKSI-ZGDY

Flight info

Callsign CSC3708
Flight time 3h 1m
Altitude 26000
Route NOPIK2Y NOPIK G597 DANTI/N0457F280 G597 AGAVO/K0839S0840 A591 IKEKA W4 NUNGA W45 LYA/K0857S0890 W45 ML/K0863S0920 W45 LIN LIN1A
Aircraft A321/M-SDE3FGHIRWY/LB1

Departure

Time 2026-04-22 16:01
Airport Incheon International Airport (RKSI)

Arrival

Time 2026-04-22 19:02
Airport Zhangjiajie Hehua International Airport (ZGDY)
Time Latitude Longitude Altitude Speed Heading
2026-04-22 15:39 37.44557 126.44704 32 ft 0 kts 75°
2026-04-22 15:55 37.44553 126.44688 31 ft 4 kts 71°
2026-04-22 15:55 37.44543 126.44657 32 ft 4 kts 60°
2026-04-22 15:55 37.44528 126.44630 30 ft 4 kts 44°
2026-04-22 15:56 37.44507 126.44611 31 ft 4 kts 15°
2026-04-22 15:56 37.44486 126.44610 31 ft 1 kts 336°
2026-04-22 15:59 37.44521 126.44588 30 ft 11 kts 331°
2026-04-22 15:59 37.44538 126.44503 32 ft 11 kts 244°
2026-04-22 15:59 37.44485 126.44403 32 ft 18 kts 237°
2026-04-22 16:00 37.44399 126.44252 31 ft 21 kts 234°
2026-04-22 16:00 37.44395 126.44124 30 ft 14 kts 317°
2026-04-22 16:00 37.44424 126.44097 30 ft 0 kts 324°
2026-04-22 16:00 37.44440 126.44083 30 ft 15 kts 324°
2026-04-22 16:01 37.44731 126.43824 32 ft 85 kts 324°
2026-04-22 16:01 37.45374 126.43253 32 ft 139 kts 324°
2026-04-22 16:01 37.46283 126.42444 53 ft 178 kts 324°
2026-04-22 16:01 37.47281 126.41551 698 ft 172 kts 324°
2026-04-22 16:02 37.48146 126.40541 1371 ft 169 kts 311°
2026-04-22 16:02 37.48915 126.39344 1563 ft 184 kts 311°
2026-04-22 16:02 37.49716 126.38014 1699 ft 200 kts 304°
2026-04-22 16:02 37.50284 126.36324 1817 ft 222 kts 287°
2026-04-22 16:03 37.50458 126.34280 1988 ft 247 kts 274°
2026-04-22 16:03 37.50492 126.32074 2491 ft 256 kts 274°
2026-04-22 16:03 37.50541 126.29816 3125 ft 260 kts 274°
2026-04-22 16:03 37.50595 126.27552 3729 ft 265 kts 274°
2026-04-22 16:04 37.50652 126.25216 4337 ft 270 kts 275°
2026-04-22 16:04 37.50711 126.22828 4922 ft 275 kts 275°
2026-04-22 16:04 37.50755 126.20406 5537 ft 279 kts 270°
2026-04-22 16:04 37.50411 126.17982 6148 ft 285 kts 252°
2026-04-22 16:05 37.49519 126.15734 6760 ft 289 kts 237°
2026-04-22 16:05 37.48400 126.13633 7395 ft 289 kts 237°
2026-04-22 16:05 37.47286 126.11521 8048 ft 290 kts 238°
2026-04-22 16:05 37.46176 126.09402 8708 ft 290 kts 238°
2026-04-22 16:06 37.45066 126.07282 9352 ft 290 kts 238°
2026-04-22 16:06 37.43953 126.05159 9996 ft 291 kts 238°
2026-04-22 16:06 37.42828 126.02993 10286 ft 304 kts 240°
2026-04-22 16:06 37.41836 126.00566 10415 ft 321 kts 248°
2026-04-22 16:07 37.41108 125.97841 10548 ft 337 kts 257°
2026-04-22 16:07 37.40719 125.94869 10673 ft 352 kts 267°
2026-04-22 16:07 37.40661 125.91726 10791 ft 367 kts 270°
2026-04-22 16:07 37.40635 125.88456 10934 ft 381 kts 270°
2026-04-22 16:08 37.40601 125.85137 11276 ft 387 kts 270°
2026-04-22 16:08 37.40558 125.81739 11733 ft 390 kts 270°
2026-04-22 16:08 37.40512 125.78316 12223 ft 392 kts 270°
2026-04-22 16:08 37.40464 125.74881 12717 ft 394 kts 270°
2026-04-22 16:09 37.40413 125.71426 13211 ft 396 kts 270°
2026-04-22 16:09 37.40364 125.67960 13688 ft 397 kts 270°
2026-04-22 16:09 37.40322 125.64474 14123 ft 399 kts 270°
2026-04-22 16:09 37.40279 125.60984 14557 ft 400 kts 270°
2026-04-22 16:10 37.40231 125.57480 14992 ft 401 kts 270°
2026-04-22 16:10 37.40179 125.53973 15441 ft 402 kts 270°
2026-04-22 16:10 37.40145 125.51645 15730 ft 402 kts 270°
2026-04-22 16:10 37.40077 125.46937 16298 ft 403 kts 270°
2026-04-22 16:11 37.40027 125.43404 16710 ft 404 kts 270°
2026-04-22 16:11 37.39976 125.39866 17136 ft 405 kts 270°
2026-04-22 16:11 37.39923 125.36320 17555 ft 406 kts 270°
2026-04-22 16:11 37.39867 125.32760 17984 ft 408 kts 270°
2026-04-22 16:12 37.39808 125.29192 18379 ft 409 kts 270°
2026-04-22 16:12 37.39747 125.25612 18741 ft 409 kts 270°
2026-04-22 16:12 37.39682 125.22038 19139 ft 409 kts 270°
2026-04-22 16:12 37.39614 125.18458 19523 ft 409 kts 269°
2026-04-22 16:13 37.39548 125.14884 19895 ft 409 kts 269°
2026-04-22 16:13 37.39484 125.11308 20263 ft 409 kts 269°
2026-04-22 16:13 37.39424 125.07729 20626 ft 409 kts 269°
2026-04-22 16:13 37.39364 125.04200 20984 ft 410 kts 269°
2026-04-22 16:14 37.39302 125.00616 21280 ft 411 kts 268°
2026-04-22 16:14 37.39237 124.97015 21587 ft 412 kts 268°
2026-04-22 16:14 37.39167 124.93406 21922 ft 413 kts 268°
2026-04-22 16:14 37.39093 124.89795 22253 ft 413 kts 268°
2026-04-22 16:15 37.38855 124.86198 22562 ft 413 kts 260°
2026-04-22 16:15 37.38125 124.82704 22875 ft 414 kts 251°
2026-04-22 16:15 37.36904 124.79415 23197 ft 417 kts 242°
2026-04-22 16:15 37.35376 124.76315 23519 ft 418 kts 240°
2026-04-22 16:16 37.33839 124.73216 23807 ft 418 kts 240°
2026-04-22 16:16 37.32301 124.70114 24074 ft 418 kts 240°
2026-04-22 16:16 37.30765 124.67023 24424 ft 416 kts 240°
2026-04-22 16:16 37.29233 124.63951 24766 ft 415 kts 240°
2026-04-22 16:17 37.27705 124.60887 25112 ft 413 kts 240°
2026-04-22 16:17 37.26183 124.57836 25458 ft 412 kts 240°
2026-04-22 16:17 37.24666 124.54797 25806 ft 410 kts 240°
2026-04-22 16:17 37.23153 124.51771 26147 ft 408 kts 240°
2026-04-22 16:18 37.21646 124.48755 26484 ft 407 kts 240°
2026-04-22 16:18 37.20149 124.45752 26864 ft 405 kts 241°
2026-04-22 16:18 37.18897 124.42618 27205 ft 401 kts 250°
2026-04-22 16:18 37.18119 124.39268 27454 ft 401 kts 259°
2026-04-22 16:19 37.17833 124.35792 27735 ft 402 kts 266°
2026-04-22 16:19 37.17738 124.32301 28034 ft 401 kts 266°
2026-04-22 16:19 37.17632 124.28815 28343 ft 400 kts 265°
2026-04-22 16:19 37.17520 124.25337 28663 ft 399 kts 265°
2026-04-22 16:20 37.17404 124.21870 28962 ft 397 kts 265°
2026-04-22 16:20 37.17288 124.18413 29287 ft 396 kts 265°
2026-04-22 16:20 37.17169 124.14971 29601 ft 395 kts 265°
2026-04-22 16:20 37.17051 124.11538 29901 ft 394 kts 265°
2026-04-22 16:21 37.16935 124.08114 30153 ft 393 kts 265°
2026-04-22 16:21 37.16817 124.04687 30220 ft 394 kts 264°
2026-04-22 16:21 37.15513 123.98081 30218 ft 393 kts 245°
2026-04-22 16:22 37.11152 123.89331 30221 ft 396 kts 239°
2026-04-22 16:23 37.06701 123.80669 30215 ft 396 kts 239°
2026-04-22 16:23 37.03711 123.74885 30216 ft 396 kts 239°
2026-04-22 16:24 36.99208 123.66216 30182 ft 397 kts 239°
2026-04-22 16:25 36.96194 123.60431 30187 ft 397 kts 239°
2026-04-22 16:25 36.92383 123.53103 30197 ft 398 kts 239°
2026-04-22 16:26 36.89361 123.47312 30173 ft 398 kts 239°
2026-04-22 16:26 36.86335 123.41512 30186 ft 398 kts 242°
2026-04-22 16:27 36.84515 123.35069 30182 ft 396 kts 262°
2026-04-22 16:27 36.84900 123.28209 30189 ft 403 kts 282°
2026-04-22 16:28 36.86517 123.21540 30196 ft 405 kts 282°
2026-04-22 16:28 36.88142 123.14803 30214 ft 405 kts 282°
2026-04-22 16:29 36.89760 123.08053 30209 ft 406 kts 282°
2026-04-22 16:29 36.91381 123.01297 30211 ft 406 kts 282°
2026-04-22 16:30 36.93006 122.94537 30211 ft 406 kts 282°
2026-04-22 16:30 36.94622 122.87774 30222 ft 406 kts 281°
2026-04-22 16:31 36.96228 122.81004 30220 ft 407 kts 282°
2026-04-22 16:31 36.97833 122.74222 30220 ft 407 kts 281°
2026-04-22 16:32 36.99437 122.67436 30219 ft 407 kts 282°
2026-04-22 16:32 37.01050 122.60646 30229 ft 407 kts 281°
2026-04-22 16:33 37.02655 122.53847 30217 ft 408 kts 281°
2026-04-22 16:33 37.04251 122.47036 30218 ft 408 kts 281°
2026-04-22 16:34 37.05840 122.40214 30223 ft 409 kts 281°
2026-04-22 16:34 37.08030 122.33595 30237 ft 421 kts 296°
2026-04-22 16:35 37.09884 122.30702 30230 ft 433 kts 307°
2026-04-22 16:35 37.11390 122.29027 30227 ft 441 kts 314°
2026-04-22 16:35 37.16814 122.23332 30221 ft 429 kts 302°
2026-04-22 16:36 37.19809 122.17091 30215 ft 412 kts 284°
2026-04-22 16:36 37.21316 122.11411 30215 ft 410 kts 282°
2026-04-22 16:37 37.23084 122.04607 30245 ft 410 kts 282°
2026-04-22 16:37 37.24829 121.97857 30243 ft 409 kts 282°
2026-04-22 16:38 37.26580 121.91060 30244 ft 409 kts 282°
2026-04-22 16:38 37.28325 121.84273 30244 ft 409 kts 282°
2026-04-22 16:39 37.30073 121.77483 30267 ft 408 kts 282°
2026-04-22 16:39 37.31816 121.70698 30258 ft 407 kts 282°
2026-04-22 16:40 37.33542 121.63932 30253 ft 407 kts 281°
2026-04-22 16:41 37.36114 121.53778 30253 ft 406 kts 282°
2026-04-22 16:41 37.37837 121.47011 30248 ft 406 kts 281°
2026-04-22 16:42 37.39547 121.40240 30240 ft 406 kts 281°
2026-04-22 16:42 37.41254 121.33464 30236 ft 406 kts 281°
2026-04-22 16:43 37.42953 121.26681 30236 ft 406 kts 281°
2026-04-22 16:43 37.44644 121.19901 30241 ft 406 kts 281°
2026-04-22 16:44 37.46491 121.13207 30235 ft 409 kts 284°
2026-04-22 16:44 37.48663 121.06563 30234 ft 411 kts 286°
2026-04-22 16:45 37.50874 120.99933 30235 ft 410 kts 285°
2026-04-22 16:45 37.53014 120.93271 30267 ft 410 kts 286°
2026-04-22 16:46 37.55117 120.86586 30250 ft 411 kts 285°
2026-04-22 16:46 37.57218 120.79885 30241 ft 411 kts 285°
2026-04-22 16:47 37.59336 120.73187 30237 ft 412 kts 286°
2026-04-22 16:47 37.61519 120.66556 30235 ft 412 kts 287°
2026-04-22 16:48 37.63733 120.59888 30237 ft 412 kts 287°
2026-04-22 16:48 37.65167 120.53016 30236 ft 401 kts 270°
2026-04-22 16:49 37.64902 120.46055 30235 ft 397 kts 262°
2026-04-22 16:49 37.64419 120.39112 30251 ft 398 kts 262°
2026-04-22 16:50 37.63940 120.32161 30247 ft 398 kts 262°
2026-04-22 16:50 37.63448 120.25210 30228 ft 398 kts 262°
2026-04-22 16:51 37.62949 120.18251 30227 ft 398 kts 262°
2026-04-22 16:51 37.62444 120.11290 30234 ft 399 kts 262°
2026-04-22 16:52 37.61936 120.04330 30237 ft 399 kts 262°
2026-04-22 16:52 37.61433 119.97405 30237 ft 399 kts 262°
2026-04-22 16:53 37.60922 119.90435 30240 ft 399 kts 262°
2026-04-22 16:53 37.60398 119.83467 30240 ft 399 kts 262°
2026-04-22 16:54 37.59877 119.76493 30252 ft 399 kts 262°
2026-04-22 16:54 37.59351 119.69520 30234 ft 400 kts 262°
2026-04-22 16:55 37.58833 119.62536 30230 ft 400 kts 262°
2026-04-22 16:55 37.58368 119.55536 30234 ft 401 kts 263°
2026-04-22 16:56 37.57916 119.48532 30248 ft 401 kts 263°
2026-04-22 16:56 37.57433 119.41517 30249 ft 401 kts 262°
2026-04-22 16:57 37.56934 119.34505 30246 ft 401 kts 262°
2026-04-22 16:57 37.56430 119.27503 30245 ft 401 kts 262°
2026-04-22 16:58 37.56013 119.21679 30264 ft 401 kts 262°
2026-04-22 16:58 37.55433 119.13511 30265 ft 400 kts 262°
2026-04-22 16:59 37.54922 119.06584 30237 ft 400 kts 262°
2026-04-22 16:59 37.54398 118.99598 30239 ft 401 kts 262°
2026-04-22 17:00 37.53876 118.92594 30255 ft 401 kts 262°
2026-04-22 17:00 37.53089 118.82119 30259 ft 400 kts 262°
2026-04-22 17:01 37.52499 118.75163 30258 ft 399 kts 260°
2026-04-22 17:01 37.51635 118.68262 30254 ft 398 kts 258°
2026-04-22 17:02 37.50706 118.61380 30247 ft 399 kts 259°
2026-04-22 17:02 37.49815 118.54467 30226 ft 401 kts 259°
2026-04-22 17:03 37.48951 118.47518 30224 ft 402 kts 259°
2026-04-22 17:03 37.48079 118.40611 30232 ft 403 kts 259°
2026-04-22 17:04 37.47186 118.33596 30236 ft 403 kts 259°
2026-04-22 17:04 37.46867 118.31132 30233 ft 404 kts 259°
2026-04-22 17:05 37.45969 118.24146 30224 ft 405 kts 259°
2026-04-22 17:05 37.45089 118.17144 30224 ft 406 kts 259°
2026-04-22 17:06 37.44221 118.10122 30229 ft 406 kts 259°
2026-04-22 17:06 37.43346 118.03135 30231 ft 407 kts 259°
2026-04-22 17:07 37.42459 117.96112 30203 ft 407 kts 259°
2026-04-22 17:07 37.41566 117.89067 30209 ft 408 kts 259°
2026-04-22 17:08 37.40672 117.82018 30214 ft 408 kts 259°
2026-04-22 17:08 37.39767 117.74956 30224 ft 409 kts 259°
2026-04-22 17:09 37.38862 117.67906 30225 ft 409 kts 259°
2026-04-22 17:09 37.37944 117.60856 30226 ft 409 kts 259°
2026-04-22 17:10 37.37030 117.53808 30223 ft 409 kts 259°
2026-04-22 17:10 37.36116 117.46804 30233 ft 409 kts 259°
2026-04-22 17:11 37.34795 117.39882 30205 ft 408 kts 248°
2026-04-22 17:11 37.32474 117.33370 30214 ft 408 kts 246°
2026-04-22 17:12 37.30144 117.26868 30218 ft 408 kts 246°
2026-04-22 17:12 37.27814 117.20371 30218 ft 408 kts 246°
2026-04-22 17:13 37.25556 117.14098 30219 ft 408 kts 246°
2026-04-22 17:13 37.23208 117.07599 30213 ft 409 kts 246°
2026-04-22 17:14 37.20860 117.01110 30221 ft 408 kts 246°
2026-04-22 17:14 37.18509 116.94643 30232 ft 407 kts 246°
2026-04-22 17:15 37.16161 116.88204 30233 ft 406 kts 246°
2026-04-22 17:15 37.13807 116.81757 30231 ft 406 kts 246°
2026-04-22 17:16 37.11534 116.75275 30222 ft 407 kts 248°
2026-04-22 17:16 37.09353 116.68738 30205 ft 407 kts 248°
2026-04-22 17:17 37.07165 116.62208 30213 ft 407 kts 248°
2026-04-22 17:17 37.04947 116.55690 30225 ft 407 kts 247°
2026-04-22 17:18 37.02726 116.49228 30219 ft 407 kts 247°
2026-04-22 17:18 37.00492 116.42725 30217 ft 407 kts 247°
2026-04-22 17:19 36.96035 116.29718 30201 ft 407 kts 247°
2026-04-22 17:20 36.91557 116.16741 30222 ft 407 kts 247°
2026-04-22 17:21 36.88184 116.07016 30220 ft 406 kts 247°
2026-04-22 17:22 36.84811 115.97301 30218 ft 406 kts 247°
2026-04-22 17:23 36.81426 115.87602 30217 ft 406 kts 246°
2026-04-22 17:23 36.78043 115.77901 30217 ft 406 kts 246°
2026-04-22 17:24 36.75532 115.71598 30217 ft 406 kts 240°
2026-04-22 17:24 36.72618 115.65560 30217 ft 407 kts 240°
2026-04-22 17:25 36.69676 115.59548 30216 ft 406 kts 239°
2026-04-22 17:25 36.66765 115.53586 30217 ft 405 kts 239°
2026-04-22 17:26 36.63846 115.47584 30216 ft 405 kts 239°
2026-04-22 17:26 36.60919 115.41585 30217 ft 405 kts 239°
2026-04-22 17:27 36.57985 115.35597 30220 ft 405 kts 239°
2026-04-22 17:27 36.55050 115.29618 30213 ft 405 kts 239°
2026-04-22 17:28 36.52116 115.23633 30204 ft 405 kts 239°
2026-04-22 17:28 36.49173 115.17646 30209 ft 406 kts 239°
2026-04-22 17:29 36.46223 115.11659 30203 ft 406 kts 239°
2026-04-22 17:29 36.43266 115.05671 30205 ft 407 kts 239°
2026-04-22 17:30 36.40788 115.00655 30227 ft 407 kts 239°
2026-04-22 17:30 36.37843 114.94714 30202 ft 407 kts 239°
2026-04-22 17:31 36.34888 114.88718 30205 ft 408 kts 240°
2026-04-22 17:31 36.32023 114.82641 30207 ft 408 kts 240°
2026-04-22 17:32 36.29180 114.76544 30209 ft 408 kts 240°
2026-04-22 17:32 36.26302 114.70476 30209 ft 409 kts 240°
2026-04-22 17:33 36.23346 114.64458 30215 ft 409 kts 239°
2026-04-22 17:33 36.20379 114.58453 30222 ft 409 kts 239°
2026-04-22 17:34 36.17426 114.52442 30220 ft 409 kts 239°
2026-04-22 17:34 36.14475 114.46424 30222 ft 409 kts 239°
2026-04-22 17:35 36.11521 114.40414 30219 ft 409 kts 239°
2026-04-22 17:35 36.08566 114.34425 30214 ft 408 kts 239°
2026-04-22 17:36 36.05603 114.28446 30213 ft 408 kts 239°
2026-04-22 17:36 36.02662 114.22499 30216 ft 408 kts 239°
2026-04-22 17:37 35.99705 114.16522 30220 ft 407 kts 239°
2026-04-22 17:37 35.96747 114.10560 30220 ft 407 kts 239°
2026-04-22 17:38 35.93778 114.04606 30239 ft 407 kts 239°
2026-04-22 17:38 35.90810 113.98665 30218 ft 406 kts 239°
2026-04-22 17:39 35.87859 113.92735 30220 ft 406 kts 239°
2026-04-22 17:40 35.83410 113.83847 30224 ft 406 kts 239°
2026-04-22 17:40 35.80443 113.77927 30224 ft 406 kts 239°
2026-04-22 17:41 35.77471 113.72013 30257 ft 406 kts 239°
2026-04-22 17:41 35.74502 113.66117 30238 ft 404 kts 239°
2026-04-22 17:42 35.71537 113.60237 30239 ft 404 kts 239°
2026-04-22 17:42 35.68567 113.54356 30244 ft 404 kts 239°
2026-04-22 17:43 35.65625 113.48533 30250 ft 404 kts 239°
2026-04-22 17:43 35.62653 113.42670 30260 ft 404 kts 238°
2026-04-22 17:44 35.59697 113.36806 30229 ft 404 kts 239°
2026-04-22 17:44 35.56797 113.30895 30235 ft 404 kts 240°
2026-04-22 17:45 35.53905 113.24979 30239 ft 404 kts 239°
2026-04-22 17:45 35.50992 113.19074 30244 ft 404 kts 239°
2026-04-22 17:46 35.48071 113.13179 30239 ft 404 kts 239°
2026-04-22 17:46 35.45146 113.07282 30249 ft 405 kts 239°
2026-04-22 17:47 35.42223 113.01392 30234 ft 405 kts 239°
2026-04-22 17:47 35.39294 112.95496 30232 ft 405 kts 240°
2026-04-22 17:48 35.36854 112.90598 30232 ft 404 kts 240°
2026-04-22 17:48 35.33423 112.83730 30234 ft 404 kts 239°
2026-04-22 17:49 35.30485 112.77858 30237 ft 405 kts 240°
2026-04-22 17:49 35.27539 112.71971 30223 ft 406 kts 240°
2026-04-22 17:50 35.24579 112.66069 30211 ft 407 kts 240°
2026-04-22 17:50 35.21424 112.60379 30211 ft 410 kts 231°
2026-04-22 17:51 35.16883 112.56070 30224 ft 421 kts 212°
2026-04-22 17:51 35.11453 112.53237 30227 ft 426 kts 206°
2026-04-22 17:52 35.05763 112.51081 30192 ft 429 kts 203°
2026-04-22 17:52 35.00041 112.48980 30206 ft 430 kts 204°
2026-04-22 17:53 34.94310 112.46868 30213 ft 431 kts 204°
2026-04-22 17:53 34.88569 112.44769 30216 ft 432 kts 203°
2026-04-22 17:54 34.82812 112.42664 30220 ft 432 kts 205°
2026-04-22 17:54 34.77064 112.40573 30227 ft 432 kts 203°
2026-04-22 17:55 34.72039 112.39728 30228 ft 449 kts 188°
2026-04-22 17:55 34.64688 112.40321 30235 ft 453 kts 184°
2026-04-22 17:56 34.58398 112.40868 30216 ft 453 kts 186°
2026-04-22 17:56 34.52119 112.41410 30225 ft 452 kts 186°
2026-04-22 17:57 34.45889 112.41937 30233 ft 452 kts 186°
2026-04-22 17:57 34.39577 112.42472 30242 ft 452 kts 186°
2026-04-22 17:58 34.33303 112.43008 30244 ft 452 kts 186°
2026-04-22 17:58 34.27080 112.43538 30249 ft 451 kts 186°
2026-04-22 17:59 34.20811 112.44073 30248 ft 451 kts 186°
2026-04-22 17:59 34.14542 112.44611 30247 ft 451 kts 186°
2026-04-22 18:00 34.09339 112.45056 30217 ft 451 kts 187°
2026-04-22 18:00 34.02023 112.45667 30229 ft 451 kts 187°
2026-04-22 18:01 33.95761 112.46192 30237 ft 451 kts 187°
2026-04-22 18:01 33.89495 112.46722 30251 ft 451 kts 186°
2026-04-22 18:02 33.83224 112.47256 30220 ft 452 kts 186°
2026-04-22 18:02 33.76942 112.47790 30224 ft 454 kts 186°
2026-04-22 18:03 33.70643 112.48330 30227 ft 454 kts 186°
2026-04-22 18:03 33.64343 112.48856 30244 ft 454 kts 186°
2026-04-22 18:04 33.58041 112.49381 30223 ft 455 kts 186°
2026-04-22 18:04 33.51717 112.49918 30230 ft 455 kts 186°
2026-04-22 18:05 33.45445 112.50448 30237 ft 455 kts 186°
2026-04-22 18:05 33.39131 112.50988 30241 ft 455 kts 186°
2026-04-22 18:06 33.32815 112.51526 30227 ft 455 kts 186°
2026-04-22 18:06 33.26497 112.52062 30234 ft 455 kts 186°
2026-04-22 18:07 33.21209 112.52512 30232 ft 455 kts 186°
2026-04-22 18:07 33.13873 112.53132 30243 ft 455 kts 186°
2026-04-22 18:08 33.07562 112.53663 30212 ft 455 kts 185°
2026-04-22 18:08 33.01234 112.54190 30220 ft 456 kts 186°
2026-04-22 18:09 32.94910 112.54707 30225 ft 454 kts 187°
2026-04-22 18:09 32.91834 112.54616 30222 ft 443 kts 195°
2026-04-22 18:09 32.88838 112.54003 30224 ft 432 kts 204°
2026-04-22 18:10 32.83098 112.52024 30212 ft 430 kts 205°
2026-04-22 18:10 32.77338 112.50082 30219 ft 431 kts 204°
2026-04-22 18:11 32.71547 112.48223 30220 ft 431 kts 204°
2026-04-22 18:11 32.65753 112.46371 30222 ft 431 kts 204°
2026-04-22 18:12 32.59971 112.44493 30210 ft 431 kts 204°
2026-04-22 18:12 32.55163 112.42932 30215 ft 431 kts 204°
2026-04-22 18:13 32.48395 112.40735 30215 ft 432 kts 204°
2026-04-22 18:13 32.42597 112.38852 30222 ft 432 kts 204°
2026-04-22 18:14 32.36788 112.36971 30203 ft 433 kts 202°
2026-04-22 18:14 32.30974 112.35099 30210 ft 433 kts 203°
2026-04-22 18:15 32.25158 112.33220 30213 ft 434 kts 203°
2026-04-22 18:15 32.19339 112.31341 30217 ft 434 kts 203°
2026-04-22 18:16 32.13510 112.29472 30197 ft 434 kts 202°
2026-04-22 18:16 32.07664 112.27616 30201 ft 438 kts 200°
2026-04-22 18:17 32.01661 112.26352 30204 ft 442 kts 197°
2026-04-22 18:17 31.95560 112.25111 30209 ft 442 kts 197°
2026-04-22 18:18 31.89531 112.23887 30221 ft 443 kts 197°
2026-04-22 18:18 31.83459 112.22660 30222 ft 443 kts 197°
2026-04-22 18:19 31.77385 112.21437 30221 ft 443 kts 197°
2026-04-22 18:19 31.71314 112.20203 30220 ft 443 kts 197°
2026-04-22 18:20 31.65241 112.18975 30197 ft 443 kts 197°
2026-04-22 18:20 31.59162 112.17748 30206 ft 444 kts 197°
2026-04-22 18:21 31.54105 112.16724 30205 ft 444 kts 197°
2026-04-22 18:21 31.48012 112.15507 30212 ft 444 kts 197°
2026-04-22 18:22 31.41915 112.14297 30183 ft 444 kts 197°
2026-04-22 18:22 31.35855 112.12986 30204 ft 442 kts 199°
2026-04-22 18:23 31.29831 112.11454 30230 ft 443 kts 200°
2026-04-22 18:23 31.23804 112.09905 30229 ft 444 kts 199°
2026-04-22 18:24 31.14899 112.07723 30229 ft 441 kts 199°
2026-04-22 18:25 31.06045 112.05583 30224 ft 440 kts 199°
2026-04-22 18:25 31.00058 112.04115 30220 ft 439 kts 199°
2026-04-22 18:26 30.91127 112.01931 30204 ft 439 kts 199°
2026-04-22 18:26 30.85157 112.00487 30215 ft 438 kts 199°
2026-04-22 18:27 30.79196 111.99050 30219 ft 437 kts 199°
2026-04-22 18:27 30.73240 111.97614 30219 ft 437 kts 199°
2026-04-22 18:28 30.67294 111.96165 30197 ft 436 kts 198°
2026-04-22 18:28 30.61358 111.94731 30212 ft 435 kts 198°
2026-04-22 18:29 30.55425 111.93313 30214 ft 435 kts 198°
2026-04-22 18:29 30.49499 111.91893 30217 ft 434 kts 198°
2026-04-22 18:30 30.40686 111.89777 30203 ft 434 kts 198°
2026-04-22 18:31 30.34758 111.88359 30205 ft 435 kts 198°
2026-04-22 18:31 30.28864 111.86955 30206 ft 436 kts 198°
2026-04-22 18:32 30.23017 111.85561 30206 ft 436 kts 198°
2026-04-22 18:32 30.17073 111.84147 30184 ft 436 kts 199°
2026-04-22 18:33 30.11127 111.82738 30200 ft 436 kts 199°
2026-04-22 18:33 30.05185 111.81327 30208 ft 436 kts 199°
2026-04-22 18:34 29.99242 111.79907 30213 ft 436 kts 199°
2026-04-22 18:34 29.93436 111.78525 30222 ft 437 kts 198°
2026-04-22 18:35 29.87489 111.77128 30214 ft 436 kts 199°
2026-04-22 18:35 29.81549 111.75725 30227 ft 435 kts 199°
2026-04-22 18:36 29.75628 111.74318 30230 ft 435 kts 199°
2026-04-22 18:36 29.69696 111.72919 30234 ft 435 kts 199°
2026-04-22 18:37 29.63779 111.71525 30219 ft 434 kts 199°
2026-04-22 18:37 29.57865 111.70130 30230 ft 434 kts 199°
2026-04-22 18:38 29.51986 111.68751 30230 ft 434 kts 199°
2026-04-22 18:38 29.46033 111.67360 30244 ft 434 kts 199°
2026-04-22 18:39 29.40500 111.65165 30240 ft 415 kts 217°
2026-04-22 18:39 29.38176 111.63265 30236 ft 407 kts 227°
2026-04-22 18:39 29.34719 111.58287 30237 ft 397 kts 244°
2026-04-22 18:40 29.32937 111.52372 30232 ft 387 kts 257°
2026-04-22 18:40 29.32334 111.49436 30227 ft 370 kts 257°
2026-04-22 18:40 29.31752 111.46627 30222 ft 355 kts 257°
2026-04-22 18:41 29.31192 111.43925 30102 ft 342 kts 257°
2026-04-22 18:41 29.30653 111.41321 29969 ft 330 kts 257°
2026-04-22 18:41 29.30128 111.38789 29411 ft 329 kts 257°
2026-04-22 18:41 29.29593 111.36220 28635 ft 334 kts 257°
2026-04-22 18:42 29.29056 111.33632 28027 ft 334 kts 257°
2026-04-22 18:42 29.28519 111.31044 27486 ft 333 kts 256°
2026-04-22 18:42 29.27981 111.28467 26973 ft 332 kts 256°
2026-04-22 18:42 29.27443 111.25901 26480 ft 331 kts 257°
2026-04-22 18:43 29.26909 111.23348 26000 ft 329 kts 256°
2026-04-22 18:43 29.26377 111.20798 25519 ft 328 kts 257°
2026-04-22 18:43 29.25854 111.18296 25059 ft 327 kts 257°
2026-04-22 18:43 29.25325 111.15766 24598 ft 326 kts 256°
2026-04-22 18:44 29.24786 111.13194 23554 ft 343 kts 257°
2026-04-22 18:44 29.24230 111.10537 23116 ft 339 kts 257°
2026-04-22 18:44 29.23691 111.07959 22920 ft 328 kts 257°
2026-04-22 18:44 29.23161 111.05433 22490 ft 324 kts 258°
2026-04-22 18:45 29.22639 111.02940 22079 ft 321 kts 258°
2026-04-22 18:45 29.22120 111.00466 21676 ft 318 kts 258°
2026-04-22 18:45 29.21605 110.98020 21278 ft 315 kts 258°
2026-04-22 18:45 29.21093 110.95599 20874 ft 311 kts 258°
2026-04-22 18:46 29.20586 110.93201 20495 ft 309 kts 258°
2026-04-22 18:46 29.20080 110.90814 20103 ft 308 kts 258°
2026-04-22 18:46 29.19578 110.88432 19727 ft 308 kts 259°
2026-04-22 18:46 29.19076 110.86050 19356 ft 308 kts 258°
2026-04-22 18:47 29.18572 110.83662 18983 ft 309 kts 259°
2026-04-22 18:47 29.18068 110.81276 18594 ft 309 kts 259°
2026-04-22 18:47 29.17562 110.78890 18182 ft 308 kts 259°
2026-04-22 18:47 29.17056 110.76506 17750 ft 308 kts 259°
2026-04-22 18:48 29.16550 110.74125 17311 ft 308 kts 259°
2026-04-22 18:48 29.16043 110.71744 16883 ft 308 kts 259°
2026-04-22 18:48 29.15536 110.69367 16455 ft 307 kts 259°
2026-04-22 18:48 29.15031 110.66998 16092 ft 306 kts 259°
2026-04-22 18:49 29.14528 110.64642 15729 ft 304 kts 259°
2026-04-22 18:49 29.14026 110.62297 15365 ft 303 kts 259°
2026-04-22 18:49 29.13531 110.59993 15019 ft 301 kts 259°
2026-04-22 18:49 29.13026 110.57640 14662 ft 300 kts 259°
2026-04-22 18:50 29.12528 110.55326 14325 ft 299 kts 259°
2026-04-22 18:50 29.12042 110.53070 14100 ft 293 kts 259°
2026-04-22 18:50 29.11558 110.50830 13870 ft 288 kts 259°
2026-04-22 18:50 29.11080 110.48617 13613 ft 285 kts 259°
2026-04-22 18:51 29.10607 110.46424 13346 ft 284 kts 260°
2026-04-22 18:51 29.10223 110.44223 13077 ft 279 kts 273°
2026-04-22 18:51 29.10668 110.42131 12830 ft 271 kts 303°
2026-04-22 18:51 29.12002 110.40652 12578 ft 271 kts 333°
2026-04-22 18:52 29.13834 110.40163 12333 ft 275 kts 355°
2026-04-22 18:52 29.15738 110.39951 12076 ft 273 kts 340°
2026-04-22 18:52 29.17288 110.38801 11832 ft 268 kts 307°
2026-04-22 18:52 29.17978 110.36850 11587 ft 270 kts 276°
2026-04-22 18:53 29.17982 110.34689 11310 ft 274 kts 268°
2026-04-22 18:53 29.17793 110.32518 10944 ft 274 kts 265°
2026-04-22 18:53 29.17546 110.30359 10585 ft 273 kts 264°
2026-04-22 18:53 29.17301 110.28210 10234 ft 272 kts 264°
2026-04-22 18:54 29.17080 110.26064 9880 ft 271 kts 265°
2026-04-22 18:54 29.16883 110.23918 9480 ft 271 kts 265°
2026-04-22 18:54 29.16703 110.21778 9091 ft 270 kts 266°
2026-04-22 18:54 29.16533 110.19640 8706 ft 270 kts 266°
2026-04-22 18:55 29.16369 110.17505 8324 ft 269 kts 266°
2026-04-22 18:55 29.16136 110.15389 7939 ft 268 kts 254°
2026-04-22 18:55 29.15132 110.13632 7567 ft 269 kts 218°
2026-04-22 18:55 29.13422 110.12834 7191 ft 269 kts 187°
2026-04-22 18:56 29.11559 110.12809 6951 ft 265 kts 175°
2026-04-22 18:56 29.09758 110.13059 6809 ft 259 kts 172°
2026-04-22 18:56 29.08008 110.13525 6480 ft 258 kts 154°
2026-04-22 18:56 29.06610 110.14726 6072 ft 247 kts 129°
2026-04-22 18:57 29.05775 110.16359 5732 ft 232 kts 107°
2026-04-22 18:57 29.05325 110.18106 5404 ft 227 kts 105°
2026-04-22 18:57 29.05016 110.19802 5094 ft 209 kts 92°
2026-04-22 18:57 29.05151 110.21384 4781 ft 193 kts 75°
2026-04-22 18:58 29.05479 110.22803 4511 ft 183 kts 75°
2026-04-22 18:58 29.05789 110.24190 4282 ft 180 kts 76°
2026-04-22 18:58 29.06100 110.25604 4030 ft 186 kts 76°
2026-04-22 18:58 29.06420 110.27037 3813 ft 183 kts 76°
2026-04-22 18:59 29.06722 110.28385 3538 ft 167 kts 76°
2026-04-22 18:59 29.07002 110.29636 3301 ft 160 kts 77°
2026-04-22 18:59 29.07276 110.30855 3071 ft 157 kts 76°
2026-04-22 18:59 29.07545 110.32065 2842 ft 157 kts 76°
2026-04-22 19:00 29.07815 110.33268 2594 ft 157 kts 76°
2026-04-22 19:00 29.08086 110.34479 2356 ft 157 kts 76°
2026-04-22 19:00 29.08360 110.35680 2112 ft 156 kts 75°
2026-04-22 19:00 29.08612 110.36882 1945 ft 155 kts 76°
2026-04-22 19:01 29.08891 110.38072 1695 ft 155 kts 76°
2026-04-22 19:01 29.09150 110.39258 1417 ft 153 kts 76°
2026-04-22 19:01 29.09413 110.40433 1192 ft 151 kts 75°
2026-04-22 19:01 29.09685 110.41605 1000 ft 152 kts 76°
2026-04-22 19:02 29.09946 110.42777 806 ft 150 kts 76°
2026-04-22 19:02 29.10194 110.43894 718 ft 129 kts 76°
2026-04-22 19:02 29.10371 110.44690 705 ft 78 kts 75°
2026-04-22 19:02 29.10485 110.45056 700 ft 39 kts 53°
2026-04-22 19:03 29.10578 110.45164 699 ft 10 kts 24°
2026-04-22 19:03 29.10630 110.45128 699 ft 11 kts 284°
2026-04-22 19:03 29.10613 110.45022 696 ft 16 kts 256°
2026-04-22 19:03 29.10581 110.44874 701 ft 22 kts 256°
2026-04-22 19:04 29.10541 110.44723 705 ft 16 kts 251°
2026-04-22 19:04 29.10507 110.44578 712 ft 21 kts 255°
2026-04-22 19:04 29.10465 110.44392 712 ft 27 kts 256°
2026-04-22 19:04 29.10475 110.44282 716 ft 12 kts 329°
2026-04-22 19:05 29.10518 110.44222 712 ft 9 kts 308°
2026-04-22 19:05 29.10566 110.44194 712 ft 7 kts 345°
2026-04-22 19:05 29.10579 110.44190 713 ft 1 kts 345°